Location: Fenile
(46.0500°N, 9.5500°E)
Time: 18:57:28
(UTC+00:00)

Cosmos 1992 Rocket - Pass Details

Date: 03 March 2021
Orbit: 759 x 765 km, 74.0° (Epoch: 12 April)

Event Time Altitude Azimuth Distance (km) Brightness Sun altitude
Rises 17:47:00 0° 183° (S) 3,216 7.3 -7.0°
Reaches altitude 10° 17:49:25 10° 178° (S) 2,294 6.5 -7.4°
Maximum altitude 17:54:25 49° 105° (ESE) 984 4.2 -8.3°
Drops below altitude 10° 17:59:26 10° 32° (NNE) 2,308 6.2 -9.2°
Sets 18:01:53 0° 27° (NNE) 3,237 7.0 -9.6°
